Tracking 29892 objects as of 21-Nov-2024
HD Live streaming from Space Station
objects crossing your sky now

STARLINK-32285

Track STARLINK-32285 now!
10-day predictions
STARLINK-32285 is classified as:


NORAD ID: 60355
Int'l Code: 2024-138A
Perigee: 453.5 km
Apogee: 455.2 km
Inclination: 53.2 °
Period: 93.5 minutes
Semi major axis: 6825 km
RCS: Unknown
Launch date: August 4, 2024
Source: United States (US)
Launch site: AIR FORCE WESTERN TEST RANGE (AFWTR)
Your satellite tracking list
Your tracking list is empty




NASA's NSSDC Master Catalog

Two Line Element Set (TLE):
1 60355U 24138A   24325.46905586 -.00000040  00000-0  89806-5 0  9997
2 60355  53.1589 355.0603 0001259  86.0296 274.0853 15.39618727 17985
Source of the keplerian elements: AFSPC